START_TIME,STEP,MOV.,M35,t_acc.,PL05,t_acc.,PL06,t_acc.,PL07,t_acc.
1979-07-22 00:00:23.570 ,0,0,0.,4.8,4.,4.8,4.,4.8,4.,4.8
1979-07-22 00:00:28.370 ,0,0,0.,4.8,5.,4.8,1.,4.8,5.,4.8
1979-07-22 00:00:33.170 ,0,0,0.,4.8,6.,4.8,1.,4.8,1.,4.8
1979-07-22 00:00:37.970 ,0,0,0.,4.8,6.,4.8,4.,4.8,4.,4.8
1979-07-22 00:00:42.770 ,0,0,0.,4.8,6.,4.8,4.,4.8,3.,4.8
1979-07-22 00:00:47.570 ,1,0,0.,4.8,5.,4.8,5.,4.8,3.,4.8
1979-07-22 00:00:52.370 ,1,0,0.,4.8,7.,4.8,3.,4.8,4.,4.8
1979-07-22 00:00:57.170 ,1,0,0.,4.8,2.,4.8,1.,4.8,3.,4.8
1979-07-22 00:01:01.970 ,1,0,0.,4.8,3.,4.8,4.,4.8,0.,4.8
1979-07-22 00:01:06.770 ,1,0,0.,4.8,4.,4.8,3.,4.8,2.,4.8
1979-07-22 00:01:11.570 ,1,0,0.,4.8,9.,4.8,6.,4.8,2.,4.8
1979-07-22 00:01:16.370 ,1,0,0.,4.8,8.,4.8,5.,4.8,2.,4.8
1979-07-22 00:01:21.170 ,1,0,0.,4.8,8.,4.8,7.,4.8,3.,4.8
1979-07-22 00:01:25.970 ,1,0,0.,4.8,8.,4.8,5.,4.8,1.,4.8
1979-07-22 00:01:30.770 ,1,0,0.,4.8,7.,4.8,4.,4.8,1.,4.8
1979-07-22 00:01:35.570 ,2,0,0.,4.8,5.,4.8,4.,4.8,2.,4.8
1979-07-22 00:01:40.370 ,2,0,0.,4.8,7.,4.8,4.,4.8,2.,4.8
1979-07-22 00:01:45.170 ,2,0,0.,4.8,5.,4.8,5.,4.8,2.,4.8
1979-07-22 00:01:49.970 ,2,0,0.,4.8,5.,4.8,1.,4.8,3.,4.8
1979-07-22 00:01:54.770 ,2,0,0.,4.8,5.,4.8,5.,4.8,3.,4.8
1979-07-22 00:01:59.570 ,2,0,0.,4.8,6.,4.8,6.,4.8,2.,4.8
1979-07-22 00:02:04.370 ,2,0,0.,4.8,12.,4.8,2.,4.8,0.,4.8
1979-07-22 00:02:09.170 ,2,0,0.,4.8,6.,4.8,6.,4.8,1.,4.8
1979-07-22 00:02:13.970 ,2,0,0.,4.8,6.,4.8,5.,4.8,1.,4.8
1979-07-22 00:02:18.770 ,2,0,0.,4.8,4.,4.8,3.,4.8,4.,4.8
1979-07-22 00:02:23.570 ,3,0,0.,4.8,4.,4.8,3.,4.8,4.,4.8
1979-07-22 00:02:28.360 ,3,0,0.,4.8,8.,4.8,2.,4.8,0.,4.8
1979-07-22 00:02:33.170 ,3,0,0.,4.8,4.,4.8,6.,4.8,2.,4.8
1979-07-22 00:02:37.960 ,3,0,0.,4.8,8.,4.8,1.,4.8,2.,4.8
1979-07-22 00:02:42.760 ,3,0,0.,4.8,6.,4.8,1.,4.8,1.,4.8
1979-07-22 00:02:47.560 ,3,0,0.,4.8,8.,4.8,2.,4.8,4.,4.8
1979-07-22 00:02:52.360 ,3,0,0.,4.8,6.,4.8,5.,4.8,2.,4.8
1979-07-22 00:02:57.160 ,3,0,0.,4.8,9.,4.8,3.,4.8,1.,4.8
1979-07-22 00:03:01.960 ,3,0,0.,4.8,11.,4.8,4.,4.8,3.,4.8
1979-07-22 00:03:06.760 ,3,0,0.,4.8,11.,4.8,4.,4.8,1.,4.8
1979-07-22 00:03:11.560 ,4,0,0.,4.8,24.,4.8,2.,4.8,0.,4.8
1979-07-22 00:03:16.360 ,4,0,0.,4.8,17.,4.8,5.,4.8,3.,4.8
1979-07-22 00:03:21.160 ,4,0,0.,4.8,14.,4.8,3.,4.8,1.,4.8
1979-07-22 00:03:25.960 ,4,0,0.,4.8,17.,4.8,1.,4.8,0.,4.8
1979-07-22 00:03:30.760 ,4,0,0.,4.8,12.,4.8,3.,4.8,1.,4.8
1979-07-22 00:03:35.570 ,4,0,0.,4.8,15.,4.8,5.,4.8,2.,4.8
1979-07-22 00:03:40.360 ,4,0,0.,4.8,13.,4.8,10.,4.8,2.,4.8
1979-07-22 00:03:45.160 ,4,0,0.,4.8,29.,4.8,2.,4.8,1.,4.8
1979-07-22 00:03:49.960 ,4,0,1.,4.8,18.,4.8,8.,4.8,1.,4.8
1979-07-22 00:03:54.760 ,4,0,0.,4.8,27.,4.8,8.,4.8,0.,4.8
1979-07-22 00:03:59.560 ,5,0,0.,4.8,22.,4.8,2.,4.8,3.,4.8
1979-07-22 00:04:04.360 ,5,0,0.,4.8,15.,4.8,4.,4.8,2.,4.8
1979-07-22 00:04:09.160 ,5,0,0.,4.8,10.,4.8,4.,4.8,1.,4.8
1979-07-22 00:04:13.960 ,5,0,0.,4.8,6.,4.8,7.,4.8,1.,4.8
1979-07-22 00:04:18.770 ,5,0,0.,4.8,3.,4.8,1.,4.8,1.,4.8
1979-07-22 00:04:23.570 ,5,0,0.,4.8,15.,4.8,5.,4.8,2.,4.8
1979-07-22 00:04:28.370 ,5,0,0.,4.8,4.,4.8,3.,4.8,1.,4.8
1979-07-22 00:04:33.170 ,5,0,0.,4.8,7.,4.8,3.,4.8,2.,4.8
1979-07-22 00:04:37.970 ,5,0,0.,4.8,4.,4.8,3.,4.8,2.,4.8
1979-07-22 00:04:42.770 ,5,0,0.,4.8,10.,4.8,3.,4.8,0.,4.8
1979-07-22 00:04:47.570 ,6,0,0.,4.8,11.,4.8,2.,4.8,0.,4.8
1979-07-22 00:04:52.370 ,6,0,0.,4.8,5.,4.8,5.,4.8,0.,4.8
1979-07-22 00:04:57.170 ,6,0,0.,4.8,5.,4.8,6.,4.8,4.,4.8
1979-07-22 00:05:01.970 ,6,0,0.,4.8,10.,4.8,7.,4.8,1.,4.8
1979-07-22 00:05:06.770 ,6,0,0.,4.8,9.,4.8,3.,4.8,4.,4.8
1979-07-22 00:05:11.570 ,6,0,0.,4.8,12.,4.8,7.,4.8,5.,4.8
1979-07-22 00:05:16.370 ,6,0,0.,4.8,10.,4.8,4.,4.8,1.,4.8
1979-07-22 00:05:21.170 ,6,0,0.,4.8,8.,4.8,1.,4.8,2.,4.8
1979-07-22 00:05:25.970 ,6,0,0.,4.8,9.,4.8,5.,4.8,0.,4.8
1979-07-22 00:05:30.770 ,6,0,0.,4.8,13.,4.8,2.,4.8,4.,4.8
1979-07-22 00:05:35.570 ,7,0,0.,4.8,11.,4.8,12.,4.8,7.,4.8
1979-07-22 00:05:40.370 ,7,0,0.,4.8,6.,4.8,4.,4.8,5.,4.8
1979-07-22 00:05:45.170 ,7,0,0.,4.8,1.,4.8,0.,4.8,0.,4.8
1979-07-22 00:05:49.970 ,7,0,0.,4.8,0.,4.8,0.,4.8,0.,4.8
1979-07-22 00:05:54.770 ,7,0,0.,4.8,0.,4.8,0.,4.8,0.,4.8
1979-07-22 00:05:59.570 ,7,0,0.,4.8,0.,4.8,0.,4.8,0.,4.8
1979-07-22 00:06:04.370 ,7,0,0.,4.8,0.,4.8,0.,4.8,0.,4.8
1979-07-22 00:06:09.170 ,7,0,0.,4.8,0.,4.8,0.,4.8,0.,4.8
1979-07-22 00:06:13.970 ,7,0,0.,4.8,0.,4.8,0.,4.8,0.,4.8
1979-07-22 00:06:18.770 ,7,0,0.,4.8,1.,4.8,0.,4.8,0.,4.8
1979-07-22 00:06:23.570 ,7,0,0.,4.8,0.,4.8,1.,4.8,0.,4.8
1979-07-22 00:06:28.370 ,7,0,0.,4.8,3.,4.8,0.,4.8,0.,4.8
1979-07-22 00:06:33.170 ,7,0,0.,4.8,0.,4.8,1.,4.8,1.,4.8
1979-07-22 00:06:37.970 ,7,0,0.,4.8,0.,4.8,1.,4.8,0.,4.8
1979-07-22 00:06:42.770 ,7,0,0.,4.8,1.,4.8,0.,4.8,0.,4.8
1979-07-22 00:06:47.570 ,7,0,0.,4.8,3.,4.8,0.,4.8,0.,4.8
1979-07-22 00:06:52.370 ,7,0,0.,4.8,1.,4.8,1.,4.8,0.,4.8
1979-07-22 00:06:57.170 ,7,0,0.,4.8,0.,4.8,0.,4.8,0.,4.8
1979-07-22 00:07:01.970 ,7,0,0.,4.8,0.,4.8,0.,4.8,0.,4.8
1979-07-22 00:07:06.770 ,7,0,0.,4.8,0.,4.8,0.,4.8,0.,4.8
1979-07-22 00:07:11.560 ,6,0,0.,4.8,1.,4.8,0.,4.8,0.,4.8
1979-07-22 00:07:16.360 ,6,0,0.,4.8,0.,4.8,0.,4.8,0.,4.8
1979-07-22 00:07:21.160 ,6,0,0.,4.8,5.,4.8,1.,4.8,2.,4.8
1979-07-22 00:07:25.960 ,6,0,0.,4.8,8.,4.8,5.,4.8,5.,4.8
1979-07-22 00:07:30.760 ,6,0,0.,4.8,5.,4.8,0.,4.8,2.,4.8
1979-07-22 00:07:35.560 ,6,0,0.,4.8,14.,4.8,7.,4.8,3.,4.8
1979-07-22 00:07:40.360 ,6,0,0.,4.8,13.,4.8,7.,4.8,1.,4.8
1979-07-22 00:07:45.160 ,6,0,0.,4.8,7.,4.8,1.,4.8,3.,4.8
1979-07-22 00:07:49.960 ,6,0,0.,4.8,6.,4.8,9.,4.8,5.,4.8
1979-07-22 00:07:54.760 ,6,0,0.,4.8,3.,4.8,2.,4.8,4.,4.8
1979-07-22 00:07:59.560 ,5,0,0.,4.8,4.,4.8,1.,4.8,2.,4.8
1979-07-22 00:08:04.360 ,5,0,0.,4.8,10.,4.8,2.,4.8,1.,4.8
1979-07-22 00:08:09.160 ,5,0,0.,4.8,7.,4.8,7.,4.8,0.,4.8
1979-07-22 00:08:13.960 ,5,0,0.,4.8,8.,4.8,1.,4.8,2.,4.8
1979-07-22 00:08:18.760 ,5,0,0.,4.8,4.,4.8,4.,4.8,0.,4.8
1979-07-22 00:08:23.560 ,5,0,0.,4.8,6.,4.8,3.,4.8,4.,4.8
1979-07-22 00:08:28.360 ,5,0,0.,4.8,14.,4.8,4.,4.8,1.,4.8
1979-07-22 00:08:33.160 ,5,0,0.,4.8,11.,4.8,5.,4.8,1.,4.8
1979-07-22 00:08:37.960 ,5,0,0.,4.8,9.,4.8,2.,4.8,3.,4.8
1979-07-22 00:08:42.760 ,5,0,0.,4.8,8.,4.8,1.,4.8,4.,4.8
1979-07-22 00:08:47.560 ,4,0,0.,4.8,6.,4.8,1.,4.8,1.,4.8
1979-07-22 00:08:52.360 ,4,0,0.,4.8,9.,4.8,5.,4.8,0.,4.8
1979-07-22 00:08:57.160 ,4,0,0.,4.8,18.,4.8,3.,4.8,0.,4.8
1979-07-22 00:09:01.960 ,4,0,0.,4.8,17.,4.8,0.,4.8,3.,4.8
1979-07-22 00:09:06.760 ,4,0,0.,4.8,8.,4.8,5.,4.8,2.,4.8
1979-07-22 00:09:11.560 ,4,0,0.,4.8,8.,4.8,0.,4.8,0.,4.8
1979-07-22 00:09:16.360 ,4,0,0.,4.8,7.,4.8,3.,4.8,1.,4.8
1979-07-22 00:09:21.160 ,4,0,0.,4.8,17.,4.8,4.,4.8,3.,4.8
1979-07-22 00:09:25.960 ,4,0,0.,4.8,18.,4.8,5.,4.8,0.,4.8
1979-07-22 00:09:30.760 ,4,0,0.,4.8,12.,4.8,2.,4.8,1.,4.8
1979-07-22 00:09:35.560 ,3,0,0.,4.8,11.,4.8,7.,4.8,2.,4.8
1979-07-22 00:09:40.360 ,3,0,0.,4.8,13.,4.8,5.,4.8,1.,4.8
1979-07-22 00:09:45.160 ,3,0,0.,4.8,30.,4.8,5.,4.8,0.,4.8
1979-07-22 00:09:49.960 ,3,0,0.,4.8,20.,4.8,2.,4.8,3.,4.8
1979-07-22 00:09:54.760 ,3,0,0.,4.8,22.,4.8,5.,4.8,1.,4.8
1979-07-22 00:09:59.560 ,3,0,0.,4.8,19.,4.8,7.,4.8,1.,4.8
1979-07-22 00:10:04.360 ,3,0,0.,4.8,21.,4.8,5.,4.8,2.,4.8
1979-07-22 00:10:09.160 ,3,0,0.,4.8,18.,4.8,2.,4.8,2.,4.8
1979-07-22 00:10:13.960 ,3,0,0.,4.8,22.,4.8,4.,4.8,0.,4.8
1979-07-22 00:10:18.760 ,3,0,0.,4.8,21.,4.8,3.,4.8,6.,4.8
1979-07-22 00:10:23.560 ,2,0,0.,4.8,21.,4.8,3.,4.8,2.,4.8
1979-07-22 00:10:28.360 ,2,0,0.,4.8,36.,4.8,4.,4.8,3.,4.8
1979-07-22 00:10:33.160 ,2,0,0.,4.8,30.,4.8,7.,4.8,5.,4.8
1979-07-22 00:10:37.960 ,2,0,0.,4.8,21.,4.8,11.,4.8,6.,4.8
1979-07-22 00:10:42.760 ,2,0,0.,4.8,25.,4.8,13.,4.8,8.,4.8
1979-07-22 00:10:47.560 ,2,0,1.,4.8,25.,4.8,8.,4.8,4.,4.8
1979-07-22 00:10:52.360 ,2,0,0.,4.8,19.,4.8,5.,4.8,3.,4.8
1979-07-22 00:10:57.160 ,2,0,0.,4.8,25.,4.8,12.,4.8,6.,4.8
1979-07-22 00:11:01.960 ,2,0,0.,4.8,35.,4.8,11.,4.8,4.,4.8
1979-07-22 00:11:06.760 ,2,0,0.,4.8,29.,4.8,10.,4.8,9.,4.8
1979-07-22 00:11:11.560 ,1,0,0.,4.8,18.,4.8,11.,4.8,2.,4.8
1979-07-22 00:11:16.360 ,1,0,0.,4.8,35.,4.8,14.,4.8,6.,4.8
1979-07-22 00:11:21.160 ,1,0,0.,4.8,4.,4.8,1.,4.8,1.,4.8
1979-07-22 00:11:25.960 ,1,0,0.,4.8,10.,4.8,5.,4.8,9.,4.8
1979-07-22 00:11:30.760 ,1,0,0.,4.8,9.,4.8,2.,4.8,1.,4.8
1979-07-22 00:11:35.560 ,1,0,0.,4.8,3.,4.8,4.,4.8,3.,4.8
1979-07-22 00:11:40.360 ,1,0,0.,4.8,4.,4.8,7.,4.8,3.,4.8
1979-07-22 00:11:45.160 ,1,0,0.,4.8,8.,4.8,2.,4.8,3.,4.8
1979-07-22 00:11:49.960 ,1,0,0.,4.8,8.,4.8,3.,4.8,2.,4.8
1979-07-22 00:11:54.760 ,1,0,0.,4.8,10.,4.8,7.,4.8,2.,4.8
1979-07-22 00:11:59.560 ,0,0,0.,4.8,7.,4.8,3.,4.8,0.,4.8
1979-07-22 00:12:04.360 ,0,0,0.,4.8,11.,4.8,5.,4.8,1.,4.8
1979-07-22 00:12:09.160 ,0,0,0.,4.8,4.,4.8,3.,4.8,4.,4.8
1979-07-22 00:12:13.960 ,0,0,0.,4.8,8.,4.8,1.,4.8,1.,4.8
1979-07-22 00:12:18.760 ,0,0,0.,4.8,7.,4.8,5.,4.8,3.,4.8
1979-07-22 00:12:23.560 ,0,0,0.,4.8,10.,4.8,6.,4.8,3.,4.8
1979-07-22 00:12:28.360 ,0,0,0.,4.8,8.,4.8,1.,4.8,3.,4.8
1979-07-22 00:12:33.160 ,0,0,0.,4.8,9.,4.8,5.,4.8,3.,4.8
1979-07-22 00:12:37.960 ,0,0,0.,4.8,11.,4.8,1.,4.8,1.,4.8
1979-07-22 00:12:42.760 ,0,0,0.,4.8,5.,4.8,4.,4.8,1.,4.8
1979-07-22 00:12:47.560 ,0,0,0.,4.8,8.,4.8,6.,4.8,0.,4.8
1979-07-22 00:12:52.360 ,0,0,0.,4.8,9.,4.8,3.,4.8,2.,4.8
1979-07-22 00:12:57.160 ,0,0,0.,4.8,7.,4.8,5.,4.8,0.,4.8
1979-07-22 00:13:01.960 ,0,0,0.,4.8,6.,4.8,2.,4.8,1.,4.8
1979-07-22 00:13:06.760 ,0,0,0.,4.8,9.,4.8,6.,4.8,2.,4.8
1979-07-22 00:13:11.560 ,0,0,0.,4.8,6.,4.8,3.,4.8,4.,4.8
1979-07-22 00:13:16.360 ,0,0,0.,4.8,9.,4.8,4.,4.8,2.,4.8
1979-07-22 00:13:21.160 ,0,0,0.,4.8,5.,4.8,1.,4.8,2.,4.8
1979-07-22 00:13:25.960 ,0,0,0.,4.8,11.,4.8,2.,4.8,3.,4.8
1979-07-22 00:13:30.760 ,0,0,0.,4.8,11.,4.8,2.,4.8,2.,4.8
1979-07-22 00:13:35.560 ,1,0,0.,4.8,12.,4.8,4.,4.8,3.,4.8
1979-07-22 00:13:40.360 ,1,0,0.,4.8,7.,4.8,4.,4.8,3.,4.8
1979-07-22 00:13:45.160 ,1,0,0.,4.8,12.,4.8,7.,4.8,2.,4.8
1979-07-22 00:13:49.960 ,1,0,0.,4.8,11.,4.8,5.,4.8,4.,4.8
1979-07-22 00:13:54.760 ,1,0,0.,4.8,5.,4.8,8.,4.8,5.,4.8
1979-07-22 00:13:59.560 ,1,0,0.,4.8,9.,4.8,4.,4.8,2.,4.8
1979-07-22 00:14:04.360 ,1,0,0.,4.8,9.,4.8,5.,4.8,4.,4.8
1979-07-22 00:14:09.160 ,1,0,0.,4.8,12.,4.8,4.,4.8,2.,4.8
1979-07-22 00:14:13.960 ,1,0,0.,4.8,15.,4.8,4.,4.8,2.,4.8
1979-07-22 00:14:18.760 ,1,0,0.,4.8,6.,4.8,5.,4.8,3.,4.8
1979-07-22 00:14:23.560 ,2,0,0.,4.8,7.,4.8,4.,4.8,1.,4.8
1979-07-22 00:14:28.360 ,2,0,0.,4.8,10.,4.8,5.,4.8,2.,4.8
1979-07-22 00:14:33.160 ,2,0,0.,4.8,16.,4.8,13.,4.8,2.,4.8
1979-07-22 00:14:37.960 ,2,0,0.,4.8,21.,4.8,9.,4.8,5.,4.8
1979-07-22 00:14:42.760 ,2,0,0.,4.8,16.,4.8,5.,4.8,9.,4.8
1979-07-22 00:14:47.560 ,2,0,0.,4.8,12.,4.8,13.,4.8,6.,4.8
1979-07-22 00:14:52.360 ,2,0,0.,4.8,26.,4.8,8.,4.8,4.,4.8
1979-07-22 00:14:57.160 ,2,0,0.,4.8,14.,4.8,8.,4.8,6.,4.8
1979-07-22 00:15:01.960 ,2,0,0.,4.8,23.,4.8,11.,4.8,6.,4.8
1979-07-22 00:15:06.760 ,2,0,0.,4.8,20.,4.8,11.,4.8,2.,4.8
1979-07-22 00:15:11.560 ,3,0,0.,4.8,24.,4.8,6.,4.8,4.,4.8
1979-07-22 00:15:16.360 ,3,0,0.,4.8,32.,4.8,15.,4.8,5.,4.8
1979-07-22 00:15:21.160 ,3,0,0.,4.8,6.,4.8,1.,4.8,1.,4.8
1979-07-22 00:15:25.960 ,3,0,0.,4.8,12.,4.8,8.,4.8,3.,4.8
1979-07-22 00:15:30.760 ,3,0,0.,4.8,10.,4.8,8.,4.8,0.,4.8
1979-07-22 00:15:35.560 ,3,0,0.,4.8,13.,4.8,2.,4.8,1.,4.8
1979-07-22 00:15:40.360 ,3,0,0.,4.8,12.,4.8,0.,4.8,0.,4.8
1979-07-22 00:15:45.160 ,3,0,0.,4.8,16.,4.8,3.,4.8,2.,4.8
1979-07-22 00:15:49.960 ,3,0,0.,4.8,10.,4.8,3.,4.8,2.,4.8
1979-07-22 00:15:54.760 ,3,0,0.,4.8,11.,4.8,0.,4.8,6.,4.8
1979-07-22 00:15:59.560 ,4,0,0.,4.8,14.,4.8,1.,4.8,2.,4.8
1979-07-22 00:16:04.360 ,4,0,0.,4.8,20.,4.8,0.,4.8,3.,4.8
1979-07-22 00:16:09.160 ,4,0,0.,4.8,35.,4.8,4.,4.8,2.,4.8
1979-07-22 00:16:13.960 ,4,0,0.,4.8,22.,4.8,3.,4.8,0.,4.8
1979-07-22 00:16:18.760 ,4,0,0.,4.8,18.,4.8,3.,4.8,1.,4.8
1979-07-22 00:16:23.560 ,4,0,0.,4.8,30.,4.8,4.,4.8,0.,4.8
1979-07-22 00:16:28.360 ,4,0,0.,4.8,24.,4.8,2.,4.8,0.,4.8
1979-07-22 00:16:33.160 ,4,0,0.,4.8,24.,4.8,4.,4.8,1.,4.8
1979-07-22 00:16:37.960 ,4,0,0.,4.8,18.,4.8,3.,4.8,0.,4.8
1979-07-22 00:16:42.760 ,4,0,0.,4.8,26.,4.8,2.,4.8,1.,4.8
1979-07-22 00:16:47.560 ,5,0,0.,4.8,19.,4.8,3.,4.8,4.,4.8
1979-07-22 00:16:52.360 ,5,0,0.,4.8,22.,4.8,4.,4.8,1.,4.8
1979-07-22 00:16:57.160 ,5,0,0.,4.8,7.,4.8,6.,4.8,3.,4.8
1979-07-22 00:17:01.960 ,5,0,0.,4.8,5.,4.8,2.,4.8,3.,4.8
1979-07-22 00:17:06.760 ,5,0,0.,4.8,6.,4.8,2.,4.8,1.,4.8
1979-07-22 00:17:11.560 ,5,0,0.,4.8,8.,4.8,1.,4.8,1.,4.8
1979-07-22 00:17:16.360 ,5,0,0.,4.8,5.,4.8,1.,4.8,0.,4.8
1979-07-22 00:17:21.160 ,5,0,0.,4.8,6.,4.8,2.,4.8,0.,4.8
1979-07-22 00:17:25.960 ,5,0,0.,4.8,6.,4.8,3.,4.8,2.,4.8
1979-07-22 00:17:30.760 ,5,0,0.,4.8,4.,4.8,5.,4.8,2.,4.8
1979-07-22 00:17:35.560 ,6,0,0.,4.8,5.,4.8,3.,4.8,1.,4.8
1979-07-22 00:17:40.360 ,6,0,0.,4.8,5.,4.8,2.,4.8,3.,4.8
1979-07-22 00:17:45.160 ,6,0,0.,4.8,5.,4.8,3.,4.8,2.,4.8
1979-07-22 00:17:49.960 ,6,0,0.,4.8,6.,4.8,2.,4.8,1.,4.8
1979-07-22 00:17:54.760 ,6,0,0.,4.8,3.,4.8,2.,4.8,2.,4.8
1979-07-22 00:17:59.560 ,6,0,0.,4.8,6.,4.8,3.,4.8,0.,4.8
1979-07-22 00:18:04.360 ,6,0,0.,4.8,7.,4.8,5.,4.8,3.,4.8
1979-07-22 00:18:09.160 ,6,0,0.,4.8,5.,4.8,2.,4.8,2.,4.8
1979-07-22 00:18:13.960 ,6,0,0.,4.8,2.,4.8,3.,4.8,3.,4.8
1979-07-22 00:18:18.760 ,6,0,0.,4.8,1.,4.8,6.,4.8,5.,4.8
1979-07-22 00:18:23.560 ,7,0,0.,4.8,7.,4.8,5.,4.8,5.,4.8
1979-07-22 00:18:28.360 ,7,0,0.,4.8,7.,4.8,4.,4.8,4.,4.8
1979-07-22 00:18:33.160 ,7,0,0.,4.8,0.,4.8,0.,4.8,1.,4.8
1979-07-22 00:18:37.960 ,7,0,0.,4.8,0.,4.8,0.,4.8,1.,4.8
1979-07-22 00:18:42.760 ,7,0,0.,4.8,1.,4.8,0.,4.8,0.,4.8
1979-07-22 00:18:47.560 ,7,0,0.,4.8,0.,4.8,0.,4.8,0.,4.8
1979-07-22 00:18:52.360 ,7,0,0.,4.8,3.,4.8,0.,4.8,0.,4.8
1979-07-22 00:18:57.160 ,7,0,0.,4.8,0.,4.8,0.,4.8,0.,4.8
1979-07-22 00:19:01.960 ,7,0,0.,4.8,1.,4.8,0.,4.8,0.,4.8
1979-07-22 00:19:06.760 ,7,0,0.,4.8,0.,4.8,0.,4.8,0.,4.8
1979-07-22 00:19:11.560 ,3,1,0.,4.8,2.,4.8,2.,4.8,0.,4.8
1979-07-22 00:19:16.360 ,3,1,0.,4.8,7.,4.8,0.,4.8,0.,4.8
1979-07-22 00:19:21.160 ,3,1,0.,4.8,10.,4.8,2.,4.8,2.,4.8
1979-07-22 00:19:25.960 ,3,1,0.,4.8,10.,4.8,3.,4.8,1.,4.8
1979-07-22 00:19:30.760 ,3,1,0.,4.8,17.,4.8,3.,4.8,1.,4.8
1979-07-22 00:19:35.560 ,0,1,0.,4.8,13.,4.8,5.,4.8,0.,4.8
1979-07-22 00:19:40.360 ,0,1,0.,4.8,21.,4.8,11.,4.8,2.,4.8
1979-07-22 00:19:45.160 ,0,1,0.,4.8,7.,4.8,2.,4.8,4.,4.8
1979-07-22 00:19:49.960 ,0,1,0.,4.8,13.,4.8,4.,4.8,0.,4.8
1979-07-22 00:19:54.760 ,0,1,0.,4.8,3.,4.8,8.,4.8,1.,4.8
1979-07-22 00:19:59.560 ,4,1,0.,4.8,3.,4.8,5.,4.8,0.,4.8
1979-07-22 00:20:04.360 ,4,1,0.,4.8,7.,4.8,2.,4.8,2.,4.8
1979-07-22 00:20:09.160 ,4,1,0.,4.8,15.,4.8,6.,4.8,6.,4.8
1979-07-22 00:20:13.960 ,4,1,0.,4.8,15.,4.8,5.,4.8,2.,4.8
1979-07-22 00:20:18.760 ,4,1,0.,4.8,17.,4.8,0.,4.8,2.,4.8
1979-07-22 00:20:23.560 ,7,1,0.,4.8,8.,4.8,4.,4.8,3.,4.8
1979-07-22 00:20:28.360 ,7,1,0.,4.8,5.,4.8,4.,4.8,0.,4.8
1979-07-22 00:20:33.160 ,7,1,0.,4.8,10.,4.8,3.,4.8,3.,4.8
1979-07-22 00:20:37.960 ,7,1,0.,4.8,2.,4.8,0.,4.8,0.,4.8
1979-07-22 00:20:42.760 ,7,1,0.,4.8,3.,4.8,0.,4.8,0.,4.8
1979-07-22 00:20:47.560 ,3,1,0.,4.8,2.,4.8,0.,4.8,1.,4.8
1979-07-22 00:20:52.360 ,3,1,0.,4.8,1.,4.8,6.,4.8,0.,4.8
1979-07-22 00:20:57.160 ,3,1,0.,4.8,8.,4.8,6.,4.8,2.,4.8
1979-07-22 00:21:01.960 ,3,1,0.,4.8,18.,4.8,2.,4.8,0.,4.8
1979-07-22 00:21:06.760 ,3,1,0.,4.8,12.,4.8,2.,4.8,1.,4.8
1979-07-22 00:21:11.560 ,0,1,0.,4.8,11.,4.8,1.,4.8,0.,4.8
1979-07-22 00:21:16.360 ,0,1,1.,4.8,19.,4.8,6.,4.8,5.,4.8
1979-07-22 00:21:21.160 ,0,1,0.,4.8,3.,4.8,3.,4.8,1.,4.8
1979-07-22 00:21:25.960 ,0,1,0.,4.8,9.,4.8,3.,4.8,1.,4.8
1979-07-22 00:21:30.760 ,0,1,0.,4.8,5.,4.8,2.,4.8,1.,4.8
1979-07-22 00:21:35.560 ,4,1,0.,4.8,4.,4.8,2.,4.8,1.,4.8
1979-07-22 00:21:40.360 ,4,1,0.,4.8,7.,4.8,4.,4.8,2.,4.8
1979-07-22 00:21:45.160 ,4,1,0.,4.8,18.,4.8,4.,4.8,4.,4.8
1979-07-22 00:21:49.960 ,4,1,0.,4.8,11.,4.8,3.,4.8,2.,4.8
1979-07-22 00:21:54.760 ,4,1,0.,4.8,4.,4.8,3.,4.8,1.,4.8
1979-07-22 00:21:59.560 ,7,1,0.,4.8,12.,4.8,0.,4.8,3.,4.8
1979-07-22 00:22:04.360 ,7,1,0.,4.8,9.,4.8,2.,4.8,0.,4.8
1979-07-22 00:22:09.160 ,7,1,0.,4.8,3.,4.8,4.,4.8,1.,4.8
1979-07-22 00:22:13.960 ,7,1,0.,4.8,2.,4.8,3.,4.8,1.,4.8
1979-07-22 00:22:18.760 ,7,1,0.,4.8,1.,4.8,0.,4.8,1.,4.8
1979-07-22 00:22:23.560 ,3,1,0.,4.8,0.,4.8,1.,4.8,0.,4.8
1979-07-22 00:22:28.360 ,3,1,0.,4.8,5.,4.8,3.,4.8,3.,4.8
1979-07-22 00:22:33.160 ,3,1,0.,4.8,8.,4.8,2.,4.8,3.,4.8
1979-07-22 00:22:37.960 ,3,1,0.,4.8,11.,4.8,3.,4.8,3.,4.8
1979-07-22 00:22:42.760 ,3,1,0.,4.8,10.,4.8,1.,4.8,1.,4.8
1979-07-22 00:22:47.560 ,0,1,0.,4.8,10.,4.8,2.,4.8,4.,4.8
1979-07-22 00:22:52.360 ,0,1,1.,4.8,12.,4.8,4.,4.8,1.,4.8
1979-07-22 00:22:57.160 ,0,1,0.,4.8,4.,4.8,5.,4.8,1.,4.8
1979-07-22 00:23:01.960 ,0,1,0.,4.8,6.,4.8,7.,4.8,0.,4.8
1979-07-22 00:23:06.760 ,0,1,0.,4.8,9.,4.8,2.,4.8,0.,4.8
1979-07-22 00:23:11.560 ,4,1,0.,4.8,7.,4.8,2.,4.8,1.,4.8
1979-07-22 00:23:16.360 ,4,1,0.,4.8,11.,4.8,3.,4.8,3.,4.8
1979-07-22 00:23:21.160 ,4,1,0.,4.8,10.,4.8,9.,4.8,2.,4.8
1979-07-22 00:23:25.960 ,4,1,0.,4.8,5.,4.8,3.,4.8,0.,4.8
1979-07-22 00:23:30.760 ,4,1,0.,4.8,7.,4.8,5.,4.8,1.,4.8
1979-07-22 00:23:35.560 ,7,1,0.,4.8,10.,4.8,3.,4.8,1.,4.8
1979-07-22 00:23:40.360 ,7,1,0.,4.8,8.,4.8,0.,4.8,1.,4.8
1979-07-22 00:23:45.160 ,7,1,0.,4.8,2.,4.8,4.,4.8,4.,4.8
1979-07-22 00:23:49.960 ,7,1,0.,4.8,1.,4.8,1.,4.8,0.,4.8
1979-07-22 00:23:54.760 ,7,1,0.,4.8,0.,4.8,0.,4.8,0.,4.8
1979-07-22 00:23:59.560 ,3,1,0.,4.8,1.,4.8,1.,4.8,1.,4.8
1979-07-22 00:24:04.360 ,3,1,0.,4.8,6.,4.8,6.,4.8,0.,4.8
1979-07-22 00:24:09.160 ,3,1,0.,4.8,5.,4.8,3.,4.8,2.,4.8
1979-07-22 00:24:13.960 ,3,1,0.,4.8,7.,4.8,1.,4.8,5.,4.8
1979-07-22 00:24:18.760 ,3,1,0.,4.8,9.,4.8,2.,4.8,1.,4.8
1979-07-22 00:24:23.560 ,0,1,0.,4.8,7.,4.8,3.,4.8,2.,4.8
1979-07-22 00:24:28.360 ,0,1,0.,4.8,16.,4.8,3.,4.8,4.,4.8
1979-07-22 00:24:33.160 ,0,1,0.,4.8,5.,4.8,3.,4.8,3.,4.8
1979-07-22 00:24:37.960 ,0,1,0.,4.8,5.,4.8,6.,4.8,2.,4.8
1979-07-22 00:24:42.760 ,0,1,0.,4.8,9.,4.8,4.,4.8,2.,4.8
1979-07-22 00:24:47.560 ,4,1,0.,4.8,8.,4.8,3.,4.8,1.,4.8
1979-07-22 00:24:52.360 ,4,1,0.,4.8,13.,4.8,2.,4.8,3.,4.8
1979-07-22 00:24:57.160 ,4,1,1.,4.8,20.,4.8,8.,4.8,2.,4.8
1979-07-22 00:25:01.960 ,4,1,0.,4.8,7.,4.8,4.,4.8,2.,4.8
1979-07-22 00:25:06.760 ,4,1,0.,4.8,0.,4.8,3.,4.8,1.,4.8
1979-07-22 00:25:11.560 ,7,1,0.,4.8,9.,4.8,3.,4.8,3.,4.8
1979-07-22 00:25:16.360 ,7,1,0.,4.8,6.,4.8,4.,4.8,1.,4.8
1979-07-22 00:25:21.160 ,7,1,0.,4.8,5.,4.8,5.,4.8,2.,4.8
1979-07-22 00:25:25.960 ,7,1,0.,4.8,1.,4.8,1.,4.8,1.,4.8
1979-07-22 00:25:30.760 ,7,1,0.,4.8,0.,4.8,0.,4.8,0.,4.8
1979-07-22 00:25:35.560 ,3,1,0.,4.8,3.,4.8,1.,4.8,0.,4.8
1979-07-22 00:25:40.360 ,3,1,0.,4.8,6.,4.8,2.,4.8,1.,4.8
1979-07-22 00:25:45.160 ,3,1,0.,4.8,4.,4.8,1.,4.8,0.,4.8
1979-07-22 00:25:49.960 ,3,1,0.,4.8,8.,4.8,3.,4.8,2.,4.8
1979-07-22 00:25:54.760 ,3,1,0.,4.8,4.,4.8,5.,4.8,1.,4.8
1979-07-22 00:25:59.560 ,0,1,0.,4.8,5.,4.8,1.,4.8,2.,4.8
1979-07-22 00:26:04.360 ,0,1,0.,4.8,17.,4.8,5.,4.8,4.,4.8
1979-07-22 00:26:09.160 ,0,1,0.,4.8,3.,4.8,7.,4.8,5.,4.8
1979-07-22 00:26:13.960 ,0,1,0.,4.8,4.,4.8,1.,4.8,1.,4.8
1979-07-22 00:26:18.760 ,0,1,0.,4.8,7.,4.8,1.,4.8,1.,4.8
1979-07-22 00:26:23.560 ,4,1,0.,4.8,11.,4.8,4.,4.8,4.,4.8
1979-07-22 00:26:28.360 ,4,1,0.,4.8,9.,4.8,1.,4.8,0.,4.8
1979-07-22 00:26:33.160 ,4,1,0.,4.8,21.,4.8,9.,4.8,1.,4.8
1979-07-22 00:26:37.960 ,4,1,0.,4.8,16.,4.8,3.,4.8,6.,4.8
1979-07-22 00:26:42.760 ,4,1,0.,4.8,6.,4.8,3.,4.8,1.,4.8
1979-07-22 00:26:47.560 ,7,1,0.,4.8,7.,4.8,2.,4.8,4.,4.8
1979-07-22 00:26:52.360 ,7,1,0.,4.8,6.,4.8,2.,4.8,1.,4.8
1979-07-22 00:26:57.160 ,7,1,0.,4.8,5.,4.8,2.,4.8,1.,4.8
1979-07-22 00:27:01.960 ,7,1,0.,4.8,1.,4.8,0.,4.8,0.,4.8
1979-07-22 00:27:06.760 ,7,1,0.,4.8,0.,4.8,0.,4.8,0.,4.8
1979-07-22 00:27:11.560 ,3,1,0.,4.8,1.,4.8,0.,4.8,0.,4.8
1979-07-22 00:27:16.360 ,3,1,0.,4.8,7.,4.8,2.,4.8,1.,4.8
1979-07-22 00:27:21.160 ,3,1,0.,4.8,11.,4.8,3.,4.8,1.,4.8
1979-07-22 00:27:25.960 ,3,1,0.,4.8,4.,4.8,2.,4.8,5.,4.8
1979-07-22 00:27:30.760 ,3,1,0.,4.8,8.,4.8,4.,4.8,1.,4.8
1979-07-22 00:27:35.560 ,0,1,0.,4.8,13.,4.8,8.,4.8,2.,4.8
1979-07-22 00:27:40.360 ,0,1,0.,4.8,17.,4.8,11.,4.8,7.,4.8
1979-07-22 00:27:45.160 ,0,1,0.,4.8,6.,4.8,7.,4.8,1.,4.8
1979-07-22 00:27:49.960 ,0,1,0.,4.8,5.,4.8,1.,4.8,0.,4.8
1979-07-22 00:27:54.760 ,0,1,0.,4.8,7.,4.8,3.,4.8,2.,4.8
1979-07-22 00:27:59.560 ,4,1,0.,4.8,6.,4.8,4.,4.8,0.,4.8
1979-07-22 00:28:04.360 ,4,1,0.,4.8,10.,4.8,5.,4.8,2.,4.8
1979-07-22 00:28:09.160 ,4,1,0.,4.8,19.,4.8,2.,4.8,3.,4.8
1979-07-22 00:28:13.960 ,4,1,0.,4.8,14.,4.8,6.,4.8,6.,4.8
1979-07-22 00:28:18.760 ,4,1,0.,4.8,8.,4.8,5.,4.8,4.,4.8
1979-07-22 00:28:23.560 ,7,1,0.,4.8,8.,4.8,2.,4.8,1.,4.8
1979-07-22 00:28:28.360 ,7,1,0.,4.8,5.,4.8,0.,4.8,1.,4.8
1979-07-22 00:28:33.160 ,7,1,0.,4.8,3.,4.8,3.,4.8,3.,4.8
1979-07-22 00:28:37.960 ,7,1,0.,4.8,3.,4.8,2.,4.8,0.,4.8
1979-07-22 00:28:42.760 ,7,1,0.,4.8,1.,4.8,0.,4.8,0.,4.8
1979-07-22 00:28:47.560 ,3,1,0.,4.8,1.,4.8,1.,4.8,0.,4.8
1979-07-22 00:28:52.360 ,3,1,0.,4.8,3.,4.8,4.,4.8,1.,4.8
1979-07-22 00:28:57.160 ,3,1,0.,4.8,5.,4.8,4.,4.8,5.,4.8
1979-07-22 00:29:01.960 ,3,1,0.,4.8,6.,4.8,4.,4.8,2.,4.8
1979-07-22 00:29:06.760 ,3,1,0.,4.8,4.,4.8,2.,4.8,0.,4.8
1979-07-22 00:29:11.560 ,0,1,0.,4.8,22.,4.8,5.,4.8,0.,4.8
1979-07-22 00:29:16.360 ,0,1,0.,4.8,32.,4.8,8.,4.8,5.,4.8
1979-07-22 00:29:21.160 ,0,1,0.,4.8,8.,4.8,4.,4.8,3.,4.8
1979-07-22 00:29:25.960 ,0,1,0.,4.8,5.,4.8,3.,4.8,1.,4.8
1979-07-22 00:29:30.760 ,0,1,0.,4.8,9.,4.8,4.,4.8,6.,4.8
1979-07-22 00:29:35.560 ,0,0,0.,4.8,7.,4.8,1.,4.8,4.,4.8
1979-07-22 00:29:40.360 ,0,0,0.,4.8,8.,4.8,6.,4.8,0.,4.8
1979-07-22 00:29:45.160 ,0,0,0.,4.8,33.,4.8,8.,4.8,5.,4.8
1979-07-22 00:29:49.960 ,0,0,0.,4.8,13.,4.8,6.,4.8,1.,4.8
1979-07-22 00:29:54.760 ,0,0,0.,4.8,6.,4.8,3.,4.8,3.,4.8
1979-07-22 00:29:59.560 ,0,0,0.,4.8,7.,4.8,4.,4.8,1.,4.8
1979-07-22 00:30:04.360 ,0,0,0.,4.8,6.,4.8,6.,4.8,2.,4.8
1979-07-22 00:30:09.160 ,0,0,0.,4.8,8.,4.8,2.,4.8,3.,4.8
1979-07-22 00:30:13.960 ,0,0,0.,4.8,2.,4.8,2.,4.8,0.,4.8
1979-07-22 00:30:18.760 ,0,0,0.,4.8,1.,4.8,0.,4.8,1.,4.8
1979-07-22 00:30:23.560 ,5,0,0.,4.8,1.,4.8,1.,4.8,0.,4.8
1979-07-22 00:30:28.360 ,5,0,0.,4.8,7.,4.8,2.,4.8,3.,4.8
1979-07-22 00:30:33.160 ,5,0,0.,4.8,7.,4.8,5.,4.8,2.,4.8
1979-07-22 00:30:37.960 ,5,0,0.,4.8,5.,4.8,1.,4.8,3.,4.8
1979-07-22 00:30:42.760 ,5,0,0.,4.8,5.,4.8,3.,4.8,3.,4.8
1979-07-22 00:30:47.560 ,5,0,0.,4.8,7.,4.8,1.,4.8,1.,4.8
1979-07-22 00:30:52.360 ,5,0,0.,4.8,3.,4.8,3.,4.8,3.,4.8
1979-07-22 00:30:57.160 ,5,0,0.,4.8,9.,4.8,4.,4.8,2.,4.8
1979-07-22 00:31:01.960 ,5,0,0.,4.8,3.,4.8,4.,4.8,1.,4.8
1979-07-22 00:31:06.760 ,5,0,0.,4.8,7.,4.8,2.,4.8,2.,4.8
1979-07-22 00:31:11.560 ,4,0,0.,4.8,1.,4.8,2.,4.8,2.,4.8
1979-07-22 00:31:16.360 ,4,0,0.,4.8,3.,4.8,2.,4.8,1.,4.8
1979-07-22 00:31:21.160 ,4,0,0.,4.8,7.,4.8,2.,4.8,1.,4.8
1979-07-22 00:31:25.960 ,4,0,0.,4.8,9.,4.8,1.,4.8,2.,4.8
1979-07-22 00:31:30.760 ,4,0,0.,4.8,1.,4.8,3.,4.8,1.,4.8
1979-07-22 00:31:35.560 ,4,0,0.,4.8,4.,4.8,2.,4.8,2.,4.8
1979-07-22 00:31:40.360 ,4,0,0.,4.8,6.,4.8,2.,4.8,1.,4.8
1979-07-22 00:31:45.160 ,4,0,0.,4.8,7.,4.8,8.,4.8,1.,4.8
1979-07-22 00:31:49.960 ,4,0,0.,4.8,6.,4.8,2.,4.8,2.,4.8
1979-07-22 00:31:54.760 ,4,0,0.,4.8,6.,4.8,3.,4.8,2.,4.8
1979-07-22 00:31:59.560 ,3,0,0.,4.8,5.,4.8,4.,4.8,3.,4.8
1979-07-22 00:32:04.360 ,3,0,0.,4.8,6.,4.8,6.,4.8,0.,4.8
1979-07-22 00:32:09.160 ,3,0,0.,4.8,14.,4.8,4.,4.8,2.,4.8
1979-07-22 00:32:13.960 ,3,0,0.,4.8,7.,4.8,3.,4.8,3.,4.8
1979-07-22 00:32:18.760 ,3,0,0.,4.8,18.,4.8,3.,4.8,0.,4.8
1979-07-22 00:32:23.560 ,3,0,0.,4.8,11.,4.8,4.,4.8,4.,4.8
1979-07-22 00:32:28.360 ,3,0,0.,4.8,8.,4.8,3.,4.8,1.,4.8
1979-07-22 00:32:33.160 ,3,0,0.,4.8,11.,4.8,9.,4.8,2.,4.8
1979-07-22 00:32:37.960 ,3,0,0.,4.8,16.,4.8,2.,4.8,1.,4.8
1979-07-22 00:32:42.760 ,3,0,0.,4.8,8.,4.8,6.,4.8,3.,4.8
1979-07-22 00:32:47.560 ,2,0,0.,4.8,18.,4.8,5.,4.8,1.,4.8
1979-07-22 00:32:52.360 ,2,0,0.,4.8,11.,4.8,7.,4.8,3.,4.8
1979-07-22 00:32:57.160 ,2,0,0.,4.8,41.,4.8,3.,4.8,5.,4.8
1979-07-22 00:33:01.960 ,2,0,0.,4.8,40.,4.8,20.,4.8,3.,4.8